EHI
0 0 0 0 0 0 0 0 0 0 0 0 0 0 0 0 0 0 0 0 0 0 0 0 0 0 0 0 0 0 0 0 0 0 0 0 0 0 0 0 0 0 0
0 0 0 0 0 0 0 0 0 0 0 0 0 0 0 0 0 0 0 0 0 0 0 0 0 0 0 0 0 0 0 0 0 0 0 0 0 0 0 0 0 0 0
0 0 0 0 0 0 0 0 0 0 0 0 0 0 0 0 0 0 0 0 0 0 0 0 0 0 0 0 0 0 0 0 0 0 0 0 0 0 0 0 0 0 0
0 0 0 0 0 0 0 0 0 0 0 0 0 0 0 0 0 0 0 0 0 0 0 0 0 0 0 0 0 0 0 0 0 0 0 0 0 0 0 0 0 0 0
0 0 0 0 0 0 0 0 0 0 0 0 0 0 0 0 0 0 0 0 0 0 0 0 0 0 0 0 0 0 0 0 0 0 0 0 0 0 0 0 0 0 0
0 0 0 0 0 0 0 0 0 0 0 0 0 0 0 0 0 0 0 0 0 0 0 0 0 0 0 0 0 0 0 0 0 0 0 0 0 0 0 0 0 0 0
0 0 0 0 0 0 0 0 0 0 0 0 0 0 0 0 0 0 0 0 0 0 0 0 0 0 0 0 0 0 0 0 0 0 0 0 0 0 0 0 0 0 0
0 0 0 0 0 0 0 0 0 0 0 0 0 0 0 0 0 0 0 0 0 0 0 0 0 0 0 0 0 0 0 0 0 0 0 0 0 0 0 0 0 0 0
0 0 0 0 0 0 0 0 0 0 0 0 0 0 0 0 0 0 0 0 0 0 0 0 0 0 0 0 0 0 0 0 0 0 0 0 0 0 0 0 0 0 0
0 0 0 0 0 0 0 0 0 0 0 0 0 0 0 0 0 0 0 0 0 0 0 0 0 0 0 0 0 0 0 0 0 0 0 0 0 0 0 0 0 0 0
0 0 0 0 0 0 0 0 0 0 0 0 0 0 0 0 0 0 0 0 0 0 0 0 0 0 0 0 0 0 0 0 0 0 0 0 0 0 0 0 0 0 0
0 0 0 0 0 0 0 0 0 0 0 0 0 0 0 0 0 0 0 0 0 0 0 0 0 0 0 0 0 0 0 0 0 0 0 0 0 0 0 0 0 0 0
0 0 0 0 0 0 0 0 0 0 0 0 0 0 0 0 0 0 0 0 0 0 0 0 0 0 0 0 0 0 0 0 0 0 0 0 0 0 0 0 0 0 0
0 0 0 0 0 0 0 0 0 0 0 0 0 0 0 0 0 0 0 0 0 0 0 0 0 0 0 0 0 0 0 0 0 0 0 0 0 0 0 0 0 0 0
0 0 0 0 0 0 0 0 0 0 0 0 0 0 0 0 0 0 0 0 0 0 0 0 0 0 0 0 0 0 0 0 0 0 0 0 0 0 0 0 0 0 0
0 0 0 0 0 0 0 0 0 0 0 0 0 0 0 0 0 0 0 0 0 0 0 0 0 0 0 0 0 0 0 0 0 0 0 0 0 0 0 0 0 0 0
0 0 0 0 0 0 0 0 0 0 0 0 0 0 0 0 0 0 0 0 0 0 0 0 0 0 0 0 0 0 0 0 0 0 0 0 0 0 0 0 0 0 0
0 0 0 0 0 0 0 0 0 0 0 0 0 0 0 0 0 0 0 0 0 0 0 0 0 0 0 0 0 0 0 0 0 0 0 0 0 0 0 0 0 0 0
0 0 0 0 0 0 0 0 0 0 0 0 0 0 0 0 0 0 0 0 0 0 0 0 0 0 0 0 0 0 0 0 0 0 0 0 0 0 0 0 0 0 0
0 0 0 0 0 0 0 0 0 0 0 0 0 0 0 0 0 0 0 0 0 0 0 0 0 0 0 0 0 0 0 0 0 0 0 0 0 0 0 0 0 0 0
0 0 0 0 0 0 0 0 0 0 0 0 0 0 0 0 0 0 0 0 0 0 0 0 0 0 0 0 0 0 0 0 0 0 0 0 0 0 0 0 0 0 0
0 0 0 0 0 0 0 0 0 0 0 0 0 0 0 0 0 0 0 0 0 0 0 0 0 0 0 0 0 0 0 0 0 0 0 0 0 0 0 0 0 0 0
0 0 0 0 0 0 0 0 0 0 0 0 0 0 0 0 0 0 0 0 0 0 0 0 0 0 0 0 0 0 0 0 0 0 0 0 0 0 0 0 0 0 0
0 0 0 0 0 0 0 0 0 0 0 0 0 0 0 0 0 0 0 0 0 0 0 0 0 0 0 0 0 0 0 0 0 0 0 0 0 0 0 0 0 0 0
0 0 0 0 0 0 0 0 0 0 0 0 0 0 0 0 0 0 0 0 0 0 0 0 0 0 0 0 0 0 0 0 0 0 0 0 0 0 0 0 0 0 0
0 0 0 0 0 0 0 0 0 0 0 0 0 0 0 0 0 0 0 0 0 0 0 0 0 0 0 0 0 0 0 0 0 0 0 0 0 0 0 0 0 0 0
Wind_Speed
5 4 3 2 1 1 1 2 3 3 4 5 6 6 7 7 8 9 8 8 9 8 7 9 9 7 6 6 5 5 4 4 4 2 1 2 4 5 4 3 3 3 3
5 4 4 3 2 2 1 2 2 3 3 4 5 6 6 6 7 9 9 9 9 10 9 9 9 7 8 6 6 7 6 4 4 4 2 3 3 5 5 4 3 3 2
5 5 5 4 3 2 2 2 2 2 3 2 3 4 5 6 6 8 8 9 9 9 9 10 9 8 9 6 7 7 5 4 3 4 4 2 2 3 4 3 2 2 2
6 6 6 5 3 3 3 2 2 2 2 2 2 2 3 4 5 6 7 7 8 8 8 8 9 10 10 8 7 8 6 5 4 5 4 3 2 3 4 4 3 2 2
7 6 6 5 5 4 4 3 2 2 2 2 2 2 3 4 4 5 5 6 7 7 7 7 8 9 10 9 7 7 7 6 5 4 4 4 4 5 6 4 4 2 1
6 6 6 6 5 5 5 4 3 3 3 3 2 2 3 3 4 6 5 6 6 6 7 6 6 7 9 10 10 10 11 10 9 6 5 6 7 6 5 5 4 4 3
6 6 6 6 6 5 5 5 5 4 4 4 3 3 4 4 5 5 5 4 5 6 6 5 4 5 7 6 7 8 10 12 12 9 8 8 8 8 9 7 6 5 4
7 7 6 6 6 5 5 5 5 4 4 3 3 4 4 5 5 4 4 4 3 4 5 5 6 6 6 6 6 5 4 5 7 6 7 7 6 7 9 8 6 5 4
7 7 6 5 5 6 6 5 5 4 4 4 4 4 4 5 5 3 3 3 2 3 3 4 5 5 7 7 6 5 3 1 2 5 6 6 9 11 10 7 7 6 3
8 8 7 5 5 5 5 5 4 4 4 4 4 4 4 4 6 5 3 1 1 2 2 2 4 5 6 8 6 7 6 4 4 5 6 6 6 9 10 7 7 6 4
7 7 7 6 5 5 4 4 4 4 4 4 4 4 4 4 5 5 4 1 1 1 1 1 2 4 6 7 6 5 7 6 5 6 5 5 4 4 4 4 4 5 4
7 7 7 7 6 5 5 5 4 4 3 4 4 4 3 3 5 5 5 4 3 1 2 1 2 4 5 5 5 5 8 8 5 5 5 4 4 4 4 5 5 5 4
6 6 6 6 6 5 4 5 4 4 3 3 3 4 4 3 3 6 5 4 4 2 1 2 1 3 3 4 5 7 7 5 5 5 5 3 3 5 5 5 6 6 6
6 6 6 6 6 6 4 4 4 4 3 3 3 4 4 3 3 3 3 2 2 1 1 0 1 2 2 3 5 5 3 4 5 5 4 4 4 4 4 4 4 4 4
5 5 5 5 5 5 4 4 4 3 4 4 3 3 3 4 4 6 4 2 1 0 1 1 1 1 1 1 2 2 3 3 3 4 4 5 5 4 4 3 3 3 3
4 5 4 4 4 4 4 5 6 6 8 7 6 5 4 5 7 7 5 4 2 1 2 2 1 1 2 2 2 2 2 3 3 4 4 5 5 5 5 4 3 3 4
4 4 4 4 4 4 5 5 6 6 7 7 8 8 7 7 6 6 5 3 1 1 1 1 1 1 1 1 2 2 2 2 3 4 4 5 5 5 5 4 4 4 3
4 4 4 4 4 4 4 4 4 5 5 5 6 9 9 7 6 6 4 2 0 0 0 0 1 1 1 1 1 1 2 2 3 4 4 4 5 5 5 5 5 5 4
3 3 3 3 3 4 4 4 3 4 4 5 5 5 8 7 6 5 4 2 1 1 1 1 1 1 1 1 1 1 2 3 4 4 4 4 5 5 5 5 5 7 5
3 5 4 3 3 3 4 4 4 4 4 4 5 5 5 5 4 4 3 2 1 1 1 1 1 1 1 1 1 1 1 2 3 4 4 4 4 4 5 6 6 5 4
3 4 5 3 3 3 4 4 3 3 4 4 4 5 7 4 3 4 3 3 2 2 2 1 1 1 1 1 2 2 2 2 3 3 3 4 4 4 4 5 5 5 5
2 2 3 3 3 3 3 3 3 3 4 4 4 5 8 4 3 3 3 3 3 2 2 1 1 1 2 2 2 3 3 2 3 3 3 4 4 4 5 5 5 5 5
2 3 3 3 3 5 4 3 3 3 4 4 4 4 4 3 3 3 4 4 3 3 2 2 1 1 1 1 2 2 3 3 3 4 4 4 4 4 5 5 6 6 6
2 2 3 3 3 3 3 3 3 3 4 4 4 3 3 4 3 4 4 3 3 3 3 2 2 1 1 1 1 1 1 2 2 3 5 4 4 4 4 5 5 6 6
1 2 2 2 3 3 3 3 3 3 3 4 3 3 3 3 3 3 3 3 3 3 3 3 2 2 1 1 1 1 1 2 2 2 3 3 4 5 5 5 5 6 5
1 1 2 2 2 2 2 3 3 3 3 3 3 3 3 3 3 3 3 3 3 3 3 3 3 3 2 2 2 2 2 2 2 3 3 3 4 4 5 4 6 6 6
Wind_Direction
4 4 3 353 335 320 272 250 239 227 219 216 217 217 215 213 207 206 209 208 210 213 213 216 220 213 209 206 201 198 202 196 213 220 175 162 174 177 176 175 180 174 186
356 3 357 350 354 342 310 289 269 246 231 223 217 216 218 219 215 210 211 211 212 213 215 219 222 214 214 208 202 204 204 195 191 205 200 181 188 181 173 175 184 179 183
2 5 359 3 9 347 327 313 298 278 267 248 230 221 219 220 221 218 214 214 214 215 215 216 216 209 216 215 210 206 201 194 186 185 190 183 169 164 163 168 179 180 179
6 6 2 354 350 342 335 336 327 302 288 289 272 266 238 229 230 225 217 216 215 216 215 214 213 210 210 208 212 207 196 190 183 176 178 175 163 158 162 172 186 187 177
6 4 355 351 353 354 354 352 348 338 322 299 289 288 265 232 232 235 223 219 215 213 214 215 215 213 211 207 209 203 193 194 186 184 184 180 178 174 189 177 181 163 168
2 356 352 357 358 359 354 351 354 350 342 332 315 292 287 275 259 245 233 219 216 215 217 219 216 210 211 209 209 205 198 193 192 190 194 195 193 188 174 173 160 163 192
357 353 354 355 355 351 352 359 359 353 352 347 342 333 311 302 294 266 243 225 218 217 217 215 218 218 205 204 204 202 206 205 197 192 193 199 191 188 176 175 176 173 177
355 350 351 351 349 346 356 358 352 348 347 342 335 332 321 315 316 299 256 221 220 223 220 215 214 213 208 197 187 190 203 204 202 196 194 193 189 180 180 174 160 129 96
355 349 344 344 345 349 353 347 341 342 342 336 333 337 333 328 324 317 275 214 210 226 227 219 211 212 206 185 172 177 179 186 169 158 158 160 163 163 158 142 145 149 153
347 343 341 342 344 345 339 333 333 336 333 332 335 334 335 326 333 344 339 230 213 229 228 219 213 210 200 186 178 175 180 176 149 137 130 128 138 152 160 163 161 158 148
338 343 346 345 342 339 337 333 331 332 335 339 334 332 332 333 337 347 346 329 243 234 248 240 222 204 196 193 190 190 183 162 153 142 134 130 126 129 133 129 138 150 151
342 346 346 344 343 346 346 342 338 337 340 336 333 328 332 340 344 340 345 351 354 279 259 260 220 200 197 194 190 178 163 150 142 140 140 145 145 141 127 116 108 97 93
345 344 343 344 345 347 349 345 344 344 340 330 327 328 332 336 339 345 343 343 344 345 315 285 242 189 179 176 173 166 157 153 151 155 160 158 140 131 120 108 97 92 80
341 340 344 346 347 348 348 345 343 340 335 329 326 324 322 326 333 334 329 330 344 356 8 50 173 157 135 151 157 157 156 164 160 162 152 133 122 123 124 121 122 122 109
339 339 341 343 341 339 340 335 329 319 324 320 313 310 313 314 319 323 322 307 296 233 89 101 106 121 138 135 128 131 140 150 152 142 139 136 138 135 130 125 124 128 132
337 340 339 337 334 334 332 333 340 340 341 342 338 331 312 307 319 326 323 321 324 128 113 133 153 170 174 169 163 156 156 158 156 149 149 150 152 150 142 135 131 139 142
329 329 329 331 331 332 332 332 330 335 345 350 351 344 338 330 331 330 327 324 327 122 104 141 173 187 187 173 166 165 167 159 151 156 157 156 153 150 145 148 150 146 147
319 320 325 321 323 325 324 323 322 328 332 334 338 341 346 344 346 348 345 356 354 69 44 199 210 205 188 174 170 165 157 150 154 159 159 157 157 156 155 158 163 161 157
313 312 314 316 318 317 318 319 323 326 326 326 332 336 346 344 345 357 5 6 344 322 311 264 219 194 191 178 169 174 174 169 165 164 167 166 164 160 162 165 167 169 161
301 313 319 315 316 320 323 325 328 329 330 331 334 336 340 349 353 351 355 351 337 313 289 262 233 200 194 185 174 175 178 173 169 171 172 172 170 168 169 170 170 168 171
293 304 317 317 314 316 317 320 323 322 322 324 324 332 342 343 345 343 342 341 329 313 299 278 240 206 193 187 182 184 188 190 183 175 175 174 174 176 176 172 172 170 165
283 291 301 305 310 313 313 314 318 318 319 322 325 333 342 346 345 344 339 335 333 325 315 296 266 232 208 199 195 193 193 196 190 182 180 177 178 179 176 173 170 168 167
282 292 299 301 303 312 318 317 317 316 318 323 328 334 340 342 343 342 338 336 338 339 339 335 317 302 261 221 210 200 201 206 200 186 182 180 178 177 174 172 170 168 172
285 292 298 303 304 304 305 307 309 313 317 321 325 328 333 337 340 340 338 335 337 340 344 342 331 322 327 310 253 224 219 206 187 184 181 178 176 173 172 171 171 173 172
286 295 300 302 304 305 306 307 311 314 314 316 319 323 328 334 336 336 337 339 342 346 349 345 337 335 330 317 292 258 228 204 194 177 170 172 173 173 171 172 171 169 169
277 290 298 302 303 305 306 307 308 310 309 312 316 319 320 322 327 330 335 340 341 341 342 343 347 344 332 321 308 289 257 228 201 182 170 167 169 174 173 174 172 172 170